Location: Ariel
(45.9570°N, 122.5700°W)
Time: 15:01:50
(UTC-07:00)

Transit 4A - Pass Details

Date: 22 July 2019
Orbit: 864 x 981 km, 66.8° (Epoch: 25 August)

Event Time Altitude Azimuth Distance (km) Brightness Sun altitude
Rises 02:53:28 0° 218° (SW) 3,641 - -20.2°
Reaches altitude 10° 02:56:01 10° 220° (SW) 2,708 - -20.0°
Exits shadow 02:59:14 32° 228° (SW) 1,611 8.6 -19.8°
Maximum altitude 03:02:22 72° 305° (NW) 1,029 8.1 -19.6°
Drops below altitude 10° 03:08:48 10° 30° (NNE) 2,741 11.6 -19.1°
Sets 03:11:24 0° 33° (NNE) 3,687 12.7 -18.8°
